Location: Baller�as
(41.9020°N, 0.1554°W)
Time: 12:03:57
(UTC+00:00)

USA 238 - Pass Details

Date: 10 August 2020
Orbit: 1006 x 1206 km, 63.4° (Epoch: 17 September)

Event Time Altitude Azimuth Distance (km) Brightness Sun altitude
Rises 20:47:54 0° 203° (SSW) 3,723 6.4 -16.9°
Reaches altitude 10° 20:50:28 10° 201° (SSW) 2,786 5.7 -17.3°
Maximum altitude 20:56:56 67° 121° (ESE) 1,116 3.5 -18.2°
Drops below altitude 10° 21:03:41 10° 40° (NE) 2,903 6.0 -19.1°
Sets 21:06:24 0° 38° (NE) 3,890 6.7 -19.5°
